Location: Arpaise
(41.0333°N, 14.7333°E)
Time: 07:50:43
(UTC+00:00)

Cosmos 864 Rocket - Pass Details

Date: 05 July 2020
Orbit: 954 x 991 km, 82.9° (Epoch: 05 August)

Event Time Altitude Azimuth Distance (km) Brightness Sun altitude
Exits shadow 22:52:04 64° 199° (SSW) 1,076 4.4 -26.2°
Maximum altitude 22:53:08 84° 276° (W) 987 4.4 -26.2°
Drops below altitude 10° 22:59:27 10° 6° (N) 2,746 7.9 -26.3°
Sets 23:01:59 0° 7° (N) 3,703 8.8 -26.3°
